AFR848 FGSL-FKKD

Flight info

Callsign AFR848
Flight time 0h 28m
Altitude 15000
Route MBO MBO1D
Aircraft A332/H-SDE3GHIJ2J3J5M1RVWXY/LB2D1

Departure

Time 2026-05-08 19:35
Airport Malabo International Airport (FGSL)

Arrival

Time 2026-05-08 20:03
Airport Douala International Airport (FKKD)
Time Latitude Longitude Altitude Speed Heading
2026-05-08 18:51 3.75255 8.71109 73 ft 0 kts 131°
2026-05-08 19:26 3.75262 8.71100 74 ft 3 kts 131°
2026-05-08 19:27 3.75274 8.71086 63 ft 3 kts 131°
2026-05-08 19:27 3.75287 8.71072 64 ft 3 kts 131°
2026-05-08 19:27 3.75297 8.71057 63 ft 3 kts 112°
2026-05-08 19:27 3.75303 8.71040 63 ft 3 kts 89°
2026-05-08 19:28 3.75299 8.71022 66 ft 3 kts 39°
2026-05-08 19:28 3.75289 8.71014 63 ft 0 kts 42°
2026-05-08 19:31 3.75301 8.71025 66 ft 7 kts 42°
2026-05-08 19:31 3.75365 8.71081 67 ft 15 kts 41°
2026-05-08 19:31 3.75446 8.71105 68 ft 12 kts 330°
2026-05-08 19:31 3.75510 8.71093 65 ft 9 kts 32°
2026-05-08 19:32 3.75569 8.71150 67 ft 14 kts 46°
2026-05-08 19:32 3.75655 8.71224 69 ft 18 kts 40°
2026-05-08 19:32 3.75752 8.71309 64 ft 19 kts 43°
2026-05-08 19:32 3.75856 8.71405 62 ft 21 kts 43°
2026-05-08 19:33 3.75967 8.71506 64 ft 23 kts 41°
2026-05-08 19:33 3.76085 8.71611 63 ft 21 kts 41°
2026-05-08 19:33 3.76201 8.71713 65 ft 23 kts 41°
2026-05-08 19:33 3.76312 8.71812 68 ft 18 kts 42°
2026-05-08 19:34 3.76394 8.71873 64 ft 13 kts 17°
2026-05-08 19:34 3.76469 8.71833 62 ft 14 kts 310°
2026-05-08 19:34 3.76475 8.71732 62 ft 16 kts 255°
2026-05-08 19:34 3.76434 8.71675 62 ft 1 kts 222°
2026-05-08 19:35 3.76314 8.71566 59 ft 56 kts 222°
2026-05-08 19:35 3.75856 8.71160 62 ft 117 kts 221°
2026-05-08 19:35 3.75119 8.70511 208 ft 156 kts 221°
2026-05-08 19:35 3.74261 8.69803 845 ft 159 kts 219°
2026-05-08 19:36 3.73394 8.69094 1420 ft 167 kts 219°
2026-05-08 19:36 3.72464 8.68255 1538 ft 193 kts 221°
2026-05-08 19:36 3.71409 8.67264 1619 ft 222 kts 223°
2026-05-08 19:36 3.70367 8.65993 1711 ft 253 kts 244°
2026-05-08 19:37 3.70096 8.64185 1974 ft 278 kts 275°
2026-05-08 19:37 3.70618 8.62268 2378 ft 291 kts 290°
2026-05-08 19:37 3.71521 8.60490 3340 ft 280 kts 303°
2026-05-08 19:37 3.72722 8.59022 4299 ft 273 kts 315°
2026-05-08 19:38 3.74227 8.57868 5052 ft 274 kts 335°
2026-05-08 19:38 3.76091 8.57646 5715 ft 274 kts 16°
2026-05-08 19:38 3.77668 8.58637 6386 ft 271 kts 54°
2026-05-08 19:38 3.78252 8.60386 7092 ft 270 kts 91°
2026-05-08 19:39 3.78035 8.62245 7867 ft 268 kts 96°
2026-05-08 19:39 3.77788 8.64094 8689 ft 268 kts 95°
2026-05-08 19:39 3.77561 8.65947 9412 ft 270 kts 95°
2026-05-08 19:39 3.77334 8.67821 9812 ft 271 kts 95°
2026-05-08 19:40 3.77105 8.69698 9899 ft 272 kts 95°
2026-05-08 19:40 3.76928 8.71586 9918 ft 272 kts 89°
2026-05-08 19:40 3.77129 8.73462 9912 ft 270 kts 79°
2026-05-08 19:40 3.77513 8.75297 9909 ft 269 kts 77°
2026-05-08 19:41 3.77926 8.77124 9910 ft 269 kts 77°
2026-05-08 19:41 3.78340 8.78953 9911 ft 269 kts 77°
2026-05-08 19:41 3.78750 8.80780 9908 ft 269 kts 77°
2026-05-08 19:41 3.79159 8.82613 9914 ft 269 kts 77°
2026-05-08 19:42 3.79564 8.84439 9911 ft 269 kts 77°
2026-05-08 19:42 3.79970 8.86268 9908 ft 269 kts 77°
2026-05-08 19:42 3.80377 8.88102 9912 ft 269 kts 77°
2026-05-08 19:42 3.80782 8.89929 9908 ft 269 kts 77°
2026-05-08 19:43 3.81181 8.91731 9917 ft 269 kts 77°
2026-05-08 19:43 3.81586 8.93562 9909 ft 269 kts 77°
2026-05-08 19:43 3.81989 8.95388 9918 ft 269 kts 77°
2026-05-08 19:43 3.82394 8.97219 9921 ft 269 kts 77°
2026-05-08 19:44 3.82798 8.99050 9920 ft 269 kts 77°
2026-05-08 19:44 3.83204 9.00884 9923 ft 269 kts 77°
2026-05-08 19:44 3.83607 9.02711 9931 ft 269 kts 77°
2026-05-08 19:44 3.84011 9.04541 9929 ft 269 kts 77°
2026-05-08 19:45 3.84416 9.06375 9930 ft 269 kts 77°
2026-05-08 19:45 3.84821 9.08209 9926 ft 269 kts 77°
2026-05-08 19:45 3.85225 9.10041 9915 ft 269 kts 77°
2026-05-08 19:45 3.85629 9.11873 9741 ft 268 kts 77°
2026-05-08 19:46 3.86018 9.13641 9590 ft 259 kts 77°
2026-05-08 19:46 3.86402 9.15381 9394 ft 253 kts 77°
2026-05-08 19:46 3.87150 9.18775 8938 ft 247 kts 77°
2026-05-08 19:47 3.87521 9.20458 8665 ft 248 kts 77°
2026-05-08 19:47 3.87893 9.22144 8399 ft 249 kts 77°
2026-05-08 19:47 3.88267 9.23840 8110 ft 249 kts 77°
2026-05-08 19:47 3.88642 9.25537 7827 ft 250 kts 77°
2026-05-08 19:48 3.89017 9.27235 7560 ft 250 kts 77°
2026-05-08 19:48 3.89388 9.28919 7289 ft 251 kts 78°
2026-05-08 19:48 3.89764 9.30624 7015 ft 251 kts 78°
2026-05-08 19:48 3.90142 9.32336 6740 ft 252 kts 78°
2026-05-08 19:49 3.90520 9.34050 6453 ft 253 kts 78°
2026-05-08 19:49 3.90898 9.35769 6169 ft 253 kts 78°
2026-05-08 19:49 3.91277 9.37486 5867 ft 252 kts 78°
2026-05-08 19:49 3.91655 9.39201 5595 ft 252 kts 77°
2026-05-08 19:50 3.92032 9.40915 5305 ft 252 kts 78°
2026-05-08 19:50 3.92410 9.42630 5023 ft 252 kts 77°
2026-05-08 19:50 3.92788 9.44346 4742 ft 253 kts 77°
2026-05-08 19:50 3.93169 9.46076 4434 ft 254 kts 77°
2026-05-08 19:51 3.93551 9.47809 4146 ft 257 kts 78°
2026-05-08 19:51 3.93936 9.49555 3999 ft 256 kts 78°
2026-05-08 19:51 3.94320 9.51299 4000 ft 256 kts 78°
2026-05-08 19:51 3.94695 9.53019 4002 ft 256 kts 79°
2026-05-08 19:52 3.94784 9.54787 3995 ft 255 kts 101°
2026-05-08 19:52 3.93988 9.56384 4004 ft 265 kts 135°
2026-05-08 19:52 3.92422 9.57350 4002 ft 268 kts 158°
2026-05-08 19:52 3.90743 9.58179 3992 ft 266 kts 153°
2026-05-08 19:53 3.89192 9.59104 3984 ft 252 kts 148°
2026-05-08 19:53 3.87810 9.60115 3986 ft 242 kts 142°
2026-05-08 19:53 3.86556 9.61227 3993 ft 241 kts 137°
2026-05-08 19:53 3.85410 9.62450 3994 ft 241 kts 131°
2026-05-08 19:54 3.84378 9.63779 3990 ft 242 kts 127°
2026-05-08 19:54 3.83471 9.65205 3993 ft 243 kts 121°
2026-05-08 19:54 3.82709 9.66691 3992 ft 243 kts 116°
2026-05-08 19:54 3.82074 9.68267 3995 ft 244 kts 110°
2026-05-08 19:55 3.81588 9.69895 3995 ft 244 kts 104°
2026-05-08 19:55 3.81256 9.71545 3879 ft 240 kts 99°
2026-05-08 19:55 3.81075 9.73210 3560 ft 242 kts 94°
2026-05-08 19:55 3.81050 9.74902 3250 ft 244 kts 89°
2026-05-08 19:56 3.81182 9.76592 3035 ft 243 kts 83°
2026-05-08 19:56 3.81469 9.78265 2989 ft 244 kts 78°
2026-05-08 19:56 3.81908 9.79911 2992 ft 244 kts 72°
2026-05-08 19:56 3.82498 9.81509 2995 ft 245 kts 67°
2026-05-08 19:57 3.83234 9.83045 2993 ft 245 kts 62°
2026-05-08 19:57 3.84110 9.84506 2997 ft 245 kts 56°
2026-05-08 19:57 3.85119 9.85885 2997 ft 246 kts 51°
2026-05-08 19:57 3.86252 9.87166 2997 ft 246 kts 45°
2026-05-08 19:58 3.87533 9.88296 2996 ft 245 kts 32°
2026-05-08 19:58 3.89082 9.88942 2992 ft 237 kts
2026-05-08 19:58 3.90649 9.88875 3005 ft 217 kts 341°
2026-05-08 19:58 3.91896 9.88181 3006 ft 196 kts 317°
2026-05-08 19:59 3.92788 9.87259 2962 ft 179 kts 303°
2026-05-08 19:59 3.93404 9.86209 2777 ft 173 kts 294°
2026-05-08 19:59 3.93938 9.85146 2545 ft 167 kts 294°
2026-05-08 19:59 3.94447 9.84143 2314 ft 155 kts 293°
2026-05-08 20:00 3.94914 9.83223 2117 ft 141 kts 293°
2026-05-08 20:00 3.95343 9.82374 1941 ft 134 kts 292°
2026-05-08 20:00 3.95762 9.81542 1768 ft 134 kts 292°
2026-05-08 20:00 3.96181 9.80711 1604 ft 133 kts 292°
2026-05-08 20:01 3.96600 9.79881 1422 ft 134 kts 292°
2026-05-08 20:01 3.97019 9.79064 1255 ft 133 kts 292°
2026-05-08 20:01 3.97434 9.78240 1073 ft 132 kts 292°
2026-05-08 20:01 3.97831 9.77408 908 ft 132 kts 293°
2026-05-08 20:02 3.98259 9.76597 744 ft 130 kts 297°
2026-05-08 20:02 3.98686 9.75789 620 ft 132 kts 292°
2026-05-08 20:02 3.99078 9.74963 422 ft 131 kts 296°
2026-05-08 20:02 3.99497 9.74153 277 ft 131 kts 297°
2026-05-08 20:03 3.99909 9.73343 105 ft 130 kts 298°
2026-05-08 20:03 4.00297 9.72568 37 ft 104 kts 296°
2026-05-08 20:03 4.00536 9.72103 39 ft 53 kts 297°
2026-05-08 20:03 4.00644 9.71891 42 ft 26 kts 297°
2026-05-08 20:04 4.00723 9.71736 42 ft 17 kts 297°
2026-05-08 20:04 4.00791 9.71660 43 ft 9 kts 350°
2026-05-08 20:04 4.00859 9.71681 40 ft 10 kts 26°
2026-05-08 20:04 4.00909 9.71707 39 ft 6 kts 27°
2026-05-08 20:05 4.00926 9.71717 38 ft 0 kts 28°
2026-05-08 20:05 4.00928 9.71717 38 ft 0 kts 28°
2026-05-08 20:05 4.00928 9.71718 38 ft 0 kts 28°
2026-05-08 20:05 4.00929 9.71718 38 ft 1 kts 28°
2026-05-08 20:06 4.00953 9.71731 38 ft 9 kts 29°
2026-05-08 20:06 4.01006 9.71761 38 ft 7 kts 29°
2026-05-08 20:06 4.01057 9.71787 38 ft 10 kts 26°
2026-05-08 20:06 4.01106 9.71807 37 ft 6 kts
2026-05-08 20:07 4.01123 9.71794 37 ft 3 kts 303°
2026-05-08 20:07 4.01138 9.71774 37 ft 4 kts 301°
2026-05-08 20:07 4.01142 9.71767 37 ft 0 kts 300°